This demonstration page uses our WeatherBlox Daily Observations layout. Learn more.

Left ArrowRight Arrow

39.92423, -83.80882

Hourly Observations for June 3, 2018

Temp ( °F °C ) Dew Point ( °F °C ) Humidity (%) Winds ( mph kmh ) Pressure ( in mb ) Visibility ( mi km ) Precip ( " mm )
12:56 am 00:56 Mostly Clear 66 18.9 64 17.8 93 93 E 5 7 29.88 1012 10 16.0934 N/A
1:56 am 01:56 Clear 65 18.3 63 17.2 93 93 E 7 11 29.86 1011 10 16.0934 N/A
2:56 am 02:56 Mostly Clear 64 17.8 63 17.2 96 96 E 5 7 29.85 1011 8 12.87472 N/A
3:56 am 03:56 Clear with Mist and Fog 65 18.3 64 17.8 97 97 E 7 11 29.83 1010 5 8.0467 N/A
4:56 am 04:56 Clear 67 19.4 65 18.3 93 93 SE 8 13 29.82 1010 7 11.26538 N/A
5:56 am 05:56 Clear 67 19.4 66 18.9 97 97 SSE 7 11 29.81 1010 7 11.26538 N/A
6:56 am 06:56 Sunny with Mist and Fog 68 20 67 19.4 96 96 SSE 7 11 29.81 1010 5 8.0467 N/A
7:56 am 07:56 Mostly Cloudy 71 21.7 68 20 90 90 S 6 9 29.81 1009 9 14.48406 N/A
8:56 am 08:56 Cloudy 72 22.2 68 20 87 87 SW 8 13 29.82 1010 10 16.0934 N/A
9:11 am 09:11 Cloudy 72 22 68 20 88 88 SW 8 13 29.8 1009 10 16.0934 N/A
9:56 am 09:56 Cloudy with Light Rain 73 22.8 70 21.1 90 90 WSW 9 15 29.82 1010 10 16.0934 0.02 0.508
10:19 am 10:19 Cloudy 73 23 70 21 89 89 W 13 20 29.8 1009 10 16.0934 N/A
10:46 am 10:46 Cloudy 75 24 70 21 83 83 WNW 13 20 29.77 1008 10 16.0934 N/A
10:56 am 10:56 Cloudy 76 24.4 70 21.1 82 82 WNW 13 20 29.82 1010 10 16.0934 N/A
11:14 am 11:14 Cloudy 75 24 70 21 83 83 W 12 19 29.77 1008 10 16.0934 N/A
11:56 am 11:56 Mostly Cloudy 77 25 68 20 74 74 WNW 14 22 29.83 1010 10 16.0934 N/A
12:56 pm 12:56 Partly Cloudy 80 26.7 66 18.9 62 62 WNW 16 26 29.83 1010 10 16.0934 N/A
1:56 pm 13:56 Partly Cloudy 81 27.2 64 17.8 57 57 W 16 26 29.83 1010 10 16.0934 N/A
2:56 pm 14:56 Mostly Sunny 81 27.2 59 15 47 47 W 18 30 29.81 1009 10 16.0934 N/A
3:56 pm 15:56 Sunny 81 27.2 54 12.2 39 39 W 21 33 29.82 1010 10 16.0934 N/A
4:56 pm 16:56 Sunny 81 27.2 49 9.4 33 33 W 23 37 29.81 1010 10 16.0934 N/A
5:56 pm 17:56 Mostly Sunny 79 26.1 50 10 36 36 WNW 23 37 29.82 1010 10 16.0934 N/A
6:56 pm 18:56 Sunny 77 25 49 9.4 37 37 WNW 16 26 29.84 1010 10 16.0934 N/A
7:56 pm 19:56 Sunny 76 24.4 47 8.3 36 36 WNW 10 17 29.85 1011 10 16.0934 N/A
8:56 pm 20:56 Sunny 70 21.1 51 10.6 51 51 SW 6 9 29.85 1011 10 16.0934 N/A
9:56 pm 21:56 Partly Cloudy 68 20 51 10.6 55 55 SSW 3 6 29.86 1011 9 14.48406 N/A
10:56 pm 22:56 Clear 65 18.3 51 10.6 61 61 SW 9 15 29.87 1012 10 16.0934 N/A
11:56 pm 23:56 Clear 66 18.9 51 10.6 59 59 WNW 9 15 29.88 1012 10 16.0934 N/A

Powered by AerisWeather